Azure — ZCEE2 — position and weather

sailwx.info

Track history (hours):
 
Tides and Currents Weather Stations Pressure Air Temp Water Temp Dewpoint Dewpoint Depression Visibility Wind Speed Wind Dir Waves Ship Positions

Azure

Last reported at 2014-Oct-25 05:31 UTC. Time now 2014-Oct-25 06:19 UTC.
Position N 50°54' W 001°24'.

Length 289 m; draft 8.6 m.

Type: Ship. MMSI: 310610000.

Date/timePositionNaut miles runAvg speedWind from/ knotsBaromVisibWave heightAir tempDewpointWater temp
2014-Oct-25 05:31N 50°54' W 001°24'3 3.0
2014-Oct-25 04:33N 50°51' W 001°21'10 9.8
2014-Oct-25 03:33N 50°46' W 001°08'1111.1
2014-Oct-25 02:34N 50°36' W 000°59'8 7.7
2014-Oct-25 01:34N 50°31' W 001°08'8 8.1
2014-Oct-25 00:33N 50°27' W 001°19'1110.9
2014-Oct-24 23:32N 50°21' W 001°34'10716.3
2014-Oct-24 17:00N 49°18' W 003°48'27915.1 310 / 211014.710.8 15.513.715.0
2014-Oct-23 22:33N 45°20' W 007°23'6215.2
2014-Oct-23 18:27N 44°22' W 007°57'202 7.9
2014-Oct-22 17:00N 41°18' W 009°48'12416.6 360 / 141024.910.8 20.017.6
2014-Oct-22 09:33N 39°14' W 009°52'1616.1
2014-Oct-22 08:33N 38°58' W 009°52'1616.2
2014-Oct-22 07:32N 38°42' W 009°49'1616.4
2014-Oct-22 06:33N 38°26' W 009°45'1716.8
2014-Oct-22 05:33N 38°09' W 009°40'1716.7
2014-Oct-22 04:33N 37°53' W 009°36'1221.6
2014-Oct-22 04:00N 37°42' W 009°30'612.5 060 / 201024.3 5.4 22.018.021.0
2014-Oct-22 03:33N 37°37' W 009°32'1717.0
2014-Oct-22 02:33N 37°20' W 009°27'1717.0
2014-Oct-22 01:33N 37°04' W 009°22'1616.5
2014-Oct-22 00:33N 36°49' W 009°14'1716.6
2014-Oct-21 23:33N 36°43' W 008°55'1716.9
2014-Oct-21 22:33N 36°41' W 008°34'1717.0
2014-Oct-21 21:33N 36°40' W 008°12'1716.9
2014-Oct-21 20:32N 36°39' W 007°51'87 4.1
2014-Oct-20 23:33N 35°59' W 006°16'1413.9
2014-Oct-20 22:34N 35°58' W 005°58'1715.6
2014-Oct-20 21:27N 35°58' W 005°37'1213.4
2014-Oct-20 20:33N 36°03' W 005°23'11 0.5
2014-Oct-19 22:09N 36°01' W 005°10'610.6
2014-Oct-19 21:34N 36°01' W 005°17'9 0.8
2014-Oct-19 10:33N 36°08' W 005°22'1313.3
2014-Oct-19 09:34N 35°57' W 005°31'3818.4
2014-Oct-19 07:31N 35°53' W 006°17'2519.4
2014-Oct-19 06:14N 36°01' W 006°47'2 6.2
2014-Oct-19 06:00N 36°00' W 006°48'1327.9 100 / 231013.410.8 3.521.518.322.0
2014-Oct-19 05:32N 36°05' W 007°02'1919.0
2014-Oct-19 04:33N 36°08' W 007°25'1919.1
2014-Oct-19 03:33N 36°14' W 007°47'2019.2
2014-Oct-19 02:32N 36°19' W 008°11'1919.1
2014-Oct-19 01:33N 36°24' W 008°34'1919.4
2014-Oct-19 00:34N 36°30' W 008°56'1919.0
2014-Oct-18 23:34N 36°36' W 009°19'1919.2
2014-Oct-18 22:33N 36°51' W 009°34'2118.4
2014-Oct-18 21:25N 37°12' W 009°35'1718.8
2014-Oct-18 20:29N 37°29' W 009°35'1718.1
2014-Oct-18 19:34N 37°46' W 009°30'1918.6
2014-Oct-18 18:33N 38°04' W 009°28'1918.8
2014-Oct-18 17:31N 38°24' W 009°26'1717.9
2014-Oct-18 16:33N 38°40' W 009°19'9 8.6
2014-Oct-18 15:31N 38°43' W 009°08'0 0.0
2014-Oct-18 14:33N 38°42' W 009°08'0 0.0
2014-Oct-18 13:33N 38°42' W 009°08'0 0.0
2014-Oct-18 12:32N 38°42' W 009°08'0 0.0
2014-Oct-18 11:32N 38°42' W 009°08'0 0.0
2014-Oct-18 10:31N 38°43' W 009°08'0 0.0
2014-Oct-18 09:33N 38°43' W 009°08'0 0.0
2014-Oct-18 08:30N 38°43' W 009°08'0 0.0
2014-Oct-18 07:33N 38°43' W 009°08'0 0.0
2014-Oct-18 06:33N 38°42' W 009°08'6 6.0
2014-Oct-18 05:29N 38°41' W 009°16'29 8.7
2014-Oct-18 02:11N 38°59' W 009°44'10913.3
2014-Oct-17 18:00N 40°48' W 009°54'17413.4 180 / 241010.8 5.4 2.020.018.419.0
2014-Oct-17 05:00N 43°42' W 009°42'16715.2 180 / 311002.510.8 2.018.516.9
2014-Oct-16 18:00N 46°06' W 007°42'21515.3 220 / 281003.210.8 2.518.015.518.0
2014-Oct-16 04:00N 49°00' W 004°36'7617.1 220 / 21999.810.8 15.513.7
2014-Oct-15 23:34N 49°51' W 003°09'1615.6
2014-Oct-15 22:34N 49°59' W 002°49'1916.6
2014-Oct-15 21:26N 50°05' W 002°21'1517.3
2014-Oct-15 20:33N 50°12' W 002°01'2718.4
2014-Oct-15 19:05N 50°25' W 001°24'1019.5
2014-Oct-15 18:33N 50°30' W 001°10'1413.9
2014-Oct-15 17:34N 50°43' W 000°60'1212.4
2014-Oct-15 16:34N 50°48' W 001°18'7 6.5
2014-Oct-15 15:33N 50°54' W 001°24'0 0.0
2014-Oct-15 14:32N 50°54' W 001°24'0 0.0
2014-Oct-15 13:32N 50°54' W 001°24'0 0.0
2014-Oct-15 12:31N 50°54' W 001°24'0 0.0
2014-Oct-15 11:31N 50°54' W 001°24'0 0.0
2014-Oct-15 10:33N 50°54' W 001°24'0 0.0
2014-Oct-15 09:33N 50°54' W 001°24'0 0.0
2014-Oct-15 08:33N 50°54' W 001°24'0 0.0
2014-Oct-15 07:32N 50°54' W 001°24'0 0.0
2014-Oct-15 06:32N 50°54' W 001°24'0 0.0
2014-Oct-15 05:33N 50°54' W 001°24'  
Track history (hours):
 
Tides and Currents Weather Stations Pressure Air Temp Water Temp Dewpoint Dewpoint Depression Visibility Wind Speed Wind Dir Waves Ship Positions

Azure

Last reported at 2014-Oct-25 05:31 UTC. Time now 2014-Oct-25 06:19 UTC.
Position N 50°54' W 001°24'.

Length 289 m; draft 8.6 m.

Type: Ship. MMSI: 310610000.

Date/timePositionNaut miles runAvg speedWind from/ knotsBaromVisibWave heightAir tempDewpointWater temp
2014-Oct-25 05:31N 50°54' W 001°24'3 3.0
2014-Oct-25 04:33N 50°51' W 001°21'10 9.8
2014-Oct-25 03:33N 50°46' W 001°08'1111.1
2014-Oct-25 02:34N 50°36' W 000°59'8 7.7
2014-Oct-25 01:34N 50°31' W 001°08'8 8.1
2014-Oct-25 00:33N 50°27' W 001°19'1110.9
2014-Oct-24 23:32N 50°21' W 001°34'10716.3
2014-Oct-24 17:00N 49°18' W 003°48'27915.1 310 / 211014.710.8 15.513.715.0
2014-Oct-23 22:33N 45°20' W 007°23'6215.2
2014-Oct-23 18:27N 44°22' W 007°57'202 7.9
2014-Oct-22 17:00N 41°18' W 009°48'12416.6 360 / 141024.910.8 20.017.6
2014-Oct-22 09:33N 39°14' W 009°52'1616.1
2014-Oct-22 08:33N 38°58' W 009°52'1616.2
2014-Oct-22 07:32N 38°42' W 009°49'1616.4
2014-Oct-22 06:33N 38°26' W 009°45'1716.8
2014-Oct-22 05:33N 38°09' W 009°40'1716.7
2014-Oct-22 04:33N 37°53' W 009°36'1221.6
2014-Oct-22 04:00N 37°42' W 009°30'612.5 060 / 201024.3 5.4 22.018.021.0
2014-Oct-22 03:33N 37°37' W 009°32'1717.0
2014-Oct-22 02:33N 37°20' W 009°27'1717.0
2014-Oct-22 01:33N 37°04' W 009°22'1616.5
2014-Oct-22 00:33N 36°49' W 009°14'1716.6
2014-Oct-21 23:33N 36°43' W 008°55'1716.9
2014-Oct-21 22:33N 36°41' W 008°34'1717.0
2014-Oct-21 21:33N 36°40' W 008°12'1716.9
2014-Oct-21 20:32N 36°39' W 007°51'87 4.1
2014-Oct-20 23:33N 35°59' W 006°16'1413.9
2014-Oct-20 22:34N 35°58' W 005°58'1715.6
2014-Oct-20 21:27N 35°58' W 005°37'1213.4
2014-Oct-20 20:33N 36°03' W 005°23'11 0.5
2014-Oct-19 22:09N 36°01' W 005°10'610.6
2014-Oct-19 21:34N 36°01' W 005°17'9 0.8
2014-Oct-19 10:33N 36°08' W 005°22'1313.3
2014-Oct-19 09:34N 35°57' W 005°31'3818.4
2014-Oct-19 07:31N 35°53' W 006°17'2519.4
2014-Oct-19 06:14N 36°01' W 006°47'2 6.2
2014-Oct-19 06:00N 36°00' W 006°48'1327.9 100 / 231013.410.8 3.521.518.322.0
2014-Oct-19 05:32N 36°05' W 007°02'1919.0
2014-Oct-19 04:33N 36°08' W 007°25'1919.1
2014-Oct-19 03:33N 36°14' W 007°47'2019.2
2014-Oct-19 02:32N 36°19' W 008°11'1919.1
2014-Oct-19 01:33N 36°24' W 008°34'1919.4
2014-Oct-19 00:34N 36°30' W 008°56'1919.0
2014-Oct-18 23:34N 36°36' W 009°19'1919.2
2014-Oct-18 22:33N 36°51' W 009°34'2118.4
2014-Oct-18 21:25N 37°12' W 009°35'1718.8
2014-Oct-18 20:29N 37°29' W 009°35'1718.1
2014-Oct-18 19:34N 37°46' W 009°30'1918.6
2014-Oct-18 18:33N 38°04' W 009°28'1918.8
2014-Oct-18 17:31N 38°24' W 009°26'1717.9
2014-Oct-18 16:33N 38°40' W 009°19'9 8.6
2014-Oct-18 15:31N 38°43' W 009°08'0 0.0
2014-Oct-18 14:33N 38°42' W 009°08'0 0.0
2014-Oct-18 13:33N 38°42' W 009°08'0 0.0
2014-Oct-18 12:32N 38°42' W 009°08'0 0.0
2014-Oct-18 11:32N 38°42' W 009°08'0 0.0
2014-Oct-18 10:31N 38°43' W 009°08'0 0.0
2014-Oct-18 09:33N 38°43' W 009°08'0 0.0
2014-Oct-18 08:30N 38°43' W 009°08'0 0.0
2014-Oct-18 07:33N 38°43' W 009°08'0 0.0
2014-Oct-18 06:33N 38°42' W 009°08'6 6.0
2014-Oct-18 05:29N 38°41' W 009°16'29 8.7
2014-Oct-18 02:11N 38°59' W 009°44'10913.3
2014-Oct-17 18:00N 40°48' W 009°54'17413.4 180 / 241010.8 5.4 2.020.018.419.0
2014-Oct-17 05:00N 43°42' W 009°42'16715.2 180 / 311002.510.8 2.018.516.9
2014-Oct-16 18:00N 46°06' W 007°42'21515.3 220 / 281003.210.8 2.518.015.518.0
2014-Oct-16 04:00N 49°00' W 004°36'7617.1 220 / 21999.810.8 15.513.7
2014-Oct-15 23:34N 49°51' W 003°09'1615.6
2014-Oct-15 22:34N 49°59' W 002°49'1916.6
2014-Oct-15 21:26N 50°05' W 002°21'1517.3
2014-Oct-15 20:33N 50°12' W 002°01'2718.4
2014-Oct-15 19:05N 50°25' W 001°24'1019.5
2014-Oct-15 18:33N 50°30' W 001°10'1413.9
2014-Oct-15 17:34N 50°43' W 000°60'1212.4
2014-Oct-15 16:34N 50°48' W 001°18'7 6.5
2014-Oct-15 15:33N 50°54' W 001°24'0 0.0
2014-Oct-15 14:32N 50°54' W 001°24'0 0.0
2014-Oct-15 13:32N 50°54' W 001°24'0 0.0
2014-Oct-15 12:31N 50°54' W 001°24'0 0.0
2014-Oct-15 11:31N 50°54' W 001°24'0 0.0
2014-Oct-15 10:33N 50°54' W 001°24'0 0.0
2014-Oct-15 09:33N 50°54' W 001°24'0 0.0
2014-Oct-15 08:33N 50°54' W 001°24'0 0.0
2014-Oct-15 07:32N 50°54' W 001°24'0 0.0
2014-Oct-15 06:32N 50°54' W 001°24'0 0.0
2014-Oct-15 05:33N 50°54' W 001°24'  

Dump ship's entire track history